Location: Unspecified
(41.1637°N, 24.2901°E)
Time: 22:51:12
(UTC+01:00)

ISS - Pass Details

Date: 12 November 2019
Orbit: 412 x 421 km, 51.6° (Epoch: 15 November)

Event Time Altitude Azimuth Distance (km) Brightness Sun altitude
Exits shadow 03:28:32 16° 88° (E) 1,191 -0.7 -29.8°
Drops below altitude 10° 03:29:24 10° 96° (E) 1,500 -0.1 -29.7°
Sets 03:31:36 0° 105° (ESE) 2,360 1.1 -29.3°
